Home > Weather > Lübeck > Past weeks

Flag for Germany Past Weather in Lübeck, Schleswig-Holstein, Germany — Yesterday and Last 2 Weeks

Now
57 °F

Fog.


Feels Like: 57 °F
Forecast: 52 / 65 °F
Wind: 2 mph from North

Location: Luebeck-Blankensee

Current Time: May 26, 2016 at 10:53:04 AM

Latest Report: May 26, 2016 at 10:20 AM


Visibility: 0 mi

Pressure: 30.01 "Hg

Humidity: 100%

Dew Point: 57 °F

Location of LübeckLocation

Past Weather in Lübeck — Graph

°F

Lübeck Temperature Yesterday

Maximum temperature yesterday: 63 °F (at 5:20 PM)
Minimum temperature yesterday: 54 °F (at 6:50 AM)
Average temperature yesterday: 58 °F

High & Low Weather Summary for the Past Weeks

 TemperatureHumidityPressure
High82 °F (May 22, 3:20 PM)100% (May 21, 6:50 AM)30.01 "Hg (May 21, 6:50 AM)
Low41 °F (May 15, 6:50 AM)23% (May 19, 2:50 PM)29.59 "Hg (May 13, 4:50 PM)
Average60 °F67%29.85 "Hg
* Reported May 11 9:20 AM — May 26 9:50 AM, Lübeck, Weather by CustomWeather, © 2016

Note: Actual official high and low records may vary slightly from our data, if they occured in-between our weather recording intervals... More about our weather records

Advertising

Lübeck Weather History for the Previous 24 Hours

Scroll right to see more
 ConditionsComfort  
Time TempWeatherWind HumidityBarometerVisibility
9:50 AM
Thu, May 26
55 °FFog.2 mph100%30.01 "Hg1 mi
9:20 AM55 °FFog.3 mph100%30.01 "Hg0 mi
8:50 AM55 °FFog.3 mph100%30.01 "Hg0 mi
8:20 AM55 °FFog.3 mph100%30.01 "Hg0 mi
7:50 AM55 °FFog.5 mph100%29.98 "Hg0 mi
7:20 AM55 °FFog.5 mph100%29.98 "Hg0 mi
6:50 AM55 °FFog.5 mph100%29.98 "Hg0 mi
9:20 PM
Wed, May 25
59 °FPartly sunny.6 mph82%29.98 "HgN/A
8:50 PM59 °FPartly sunny.8 mph82%29.98 "HgN/A
7:50 PM61 °FPartly sunny.7 mph83%29.95 "HgN/A
7:20 PM61 °FPartly sunny.7 mph83%29.95 "HgN/A
6:50 PM63 °FPartly sunny.7 mph77%29.95 "HgN/A
6:20 PM63 °FBroken clouds.8 mph77%29.95 "HgN/A
5:50 PM63 °FPartly sunny.5 mph77%29.95 "HgN/A
5:20 PM63 °FPartly sunny.6 mph77%29.95 "HgN/A
4:50 PM61 °FPartly sunny.8 mph83%29.95 "HgN/A
4:20 PM61 °FBroken clouds.5 mph83%29.95 "HgN/A
3:50 PM61 °FBroken clouds.5 mph83%29.95 "HgN/A
3:20 PM61 °FPartly sunny.5 mph83%29.95 "HgN/A
2:50 PM61 °FBroken clouds.2 mph83%29.95 "HgN/A
2:20 PM61 °FBroken clouds.6 mph83%29.95 "HgN/A
1:50 PM61 °FPartly sunny.3 mph77%29.95 "HgN/A
1:20 PM59 °FOvercast.6 mph82%29.95 "HgN/A
12:50 PM59 °FOvercast.5 mph82%29.95 "HgN/A
12:20 PM57 °FOvercast.7 mph88%29.95 "HgN/A
11:50 AM57 °FLow clouds.8 mph82%29.95 "HgN/A
11:20 AM55 °FLow clouds.7 mph88%29.95 "Hg6 mi
10:50 AM55 °FOvercast.6 mph88%29.95 "Hg5 mi
10:20 AM55 °FLow clouds.7 mph82%29.95 "HgN/A
Weather by CustomWeather, © 2016

See weather overviewHow to use our weather pages